Regional Weather Roundup
Issued by NWS

Home | Current Version | Previous Version | Graphics & Text | Print | Product List | Glossary On
Versions: 1 2 3 4 5 6 7 8 9 10 11 12 13 14 15 16 17 18 19 20 21 22 23 24 25 26 27 28 29 30 31 32 33 34 35 36 37 38 39 40 41 42 43 44 45 46 47 48 49 50
000
ASUS45 KBOU 210607
RWRCO

WEATHER ROUNDUP FOR COLORADO
NATIONAL WEATHER SERVICE DENVER/BOULDER CO
1200 AM MDT THU AUG 21 2014

NOTE: "FAIR" INDICATES FEW OR NO CLOUDS BELOW 12000 FEET WITH NO
SIGNIFICANT WEATHER AND/OR OBSTRUCTIONS TO VISIBILITY.

COZ001>005-013-030-031-210700-
...NORTHWEST COLORADO...

CITY           SKY/WX    TMP DP  RH WIND       PRES   REMARKS
CRAIG          PTCLDY    56  50  80 E7        30.15R
HAYDEN         PTCLDY    54  46  76 E9        30.17S
MEEKER         MOCLDY    58  49  72 E8        30.16R
MOUNT WERNER   NOT AVBL
STEAMBOAT SPGS PTCLDY    52  48  86 CALM      30.19F
WALDEN         MOCLDY    46  41  81 SE8       30.25S
$$

COZ006>008-011-210700-
...WEST CENTRAL VALLEYS...

CITY           SKY/WX    TMP DP  RH WIND       PRES   REMARKS
GRAND JUNCTION CLEAR     63  49  60 NW6       30.07R
MONTROSE       MOCLDY    66  50  56 SE6       30.15R
EAGLE          MOCLDY    55  54  94 E6        30.21S
RIFLE          PTCLDY    64  50  60 S7        30.13R
DELTA          NOT AVBL
NUCLA          MOCLDY    59  50  72 E9        30.20F
$$

COZ017>023-064>068-210700-
...SOUTHWEST COLORADO...

CITY           SKY/WX    TMP DP  RH WIND       PRES   REMARKS
DURANGO        CLEAR     61  39  44 CALM      30.18R
CORTEZ         CLEAR     57  46  66 CALM      30.17S
PAGOSA SPRINGS CLEAR     54  40  59 CALM      30.25R
TELLURIDE      PTCLDY    52  45  76 CALM      30.37F
WOLF CREEK PAS NOT AVBL
$$

COZ009-010-012-014-032>034-037-058>063-210700-
...CENTRAL COLORADO...

CITY           SKY/WX    TMP DP  RH WIND       PRES   REMARKS
ASPEN          PTCLDY    52  45  77 S7        30.26R
BUENA VISTA    PTCLDY    63  36  36 W13       30.21R
COPPER MTN     PTCLDY    46  37  71 W16       30.50S
BERTHOUD PASS  CLOUDY    37  37 100 NW16      30.52S
COTTONWOOD PAS PTCLDY    57  36  44 W16       30.35R
GUNNISON       CLEAR     54  39  58 NE3       30.28R
KREMMLING      LGT RAIN  52  46  82 E3        30.25R
LEADVILLE      CLOUDY    47  38  71 CALM      30.36R
MONARCH PASS   CLEAR     43  37  81 W24       30.60S
SALIDA         MOCLDY    65  41  41 W15G21    30.25R
SUNLIGHT       PTCLDY    45  43  93 CALM      30.44R
WILKERSON PASS PTCLDY    50  37  62 S3        30.47R
$$

COZ069>075-210700-
...SAN LUIS VALLEY/SANGRE DE CRISTO MOUNTAINS...

CITY           SKY/WX    TMP DP  RH WIND       PRES   REMARKS
ALAMOSA        PTCLDY    53  43  68 S3        30.20R
LA VETA PASS   NOT AVBL
SAGUACHE       CLEAR     59  43  55 N10       30.24R
$$

COZ035-036-038>040-210700-
...NORTHERN COLORADO FRONT RANGE...

CITY           SKY/WX    TMP DP  RH WIND       PRES   REMARKS
DENVER INTL AP CLOUDY    64  57  78 E5        30.04F THUNDER
DMNS CITY PARK   N/A     63  58  82 S3        30.04S
AURORA         LGT RAIN  63  55  77 E2        30.06F
FRONT RANGE AP NOT AVBL
ERIE MUNI ARPT CLOUDY    65  56  72 SE7       30.02F THUNDER
BOULDER MUN AP CLOUDY    64  52  63 CALM      30.03S
CENTENNIAL     MOCLDY    63  54  72 CALM      30.08S
BROOMFIELD     CLOUDY    63  55  77 S3        30.06S THUNDER
FORT COLLINS   MOCLDY    66  52  59 S5        30.02F
LONGMONT       MOCLDY    69  55  61 CALM      30.03S
$$

COZ041-046-047-076>085-087-088-210700-
...PIKES PEAK/PALMER DIVIDE AND SOUTHERN FOOTHILLS...

CITY           SKY/WX    TMP DP  RH WIND       PRES   REMARKS
COLO. SPRINGS  MOCLDY    68  51  54 N16       30.08S
A. F. ACADEMY  LGT RAIN  64  51  63 N10       30.11R
ELLICOTT         N/A     64  57  78 NE10      30.05R THUNDER
FALCON         CLOUDY    62  51  66 N15G23    30.13F
FORT CARSON    MOCLDY    69  53  57 N18       30.04R
LIMON          MOCLDY    63  56  78 N14       30.02F
MONUMENT HILL  MOCLDY    55  50  82 NW7       30.15S
TRINIDAD       CLEAR     71  46  40 W13       30.01R
$$

COZ042>045-048>051-090-091-210700-
...NORTHEAST COLORADO...

CITY           SKY/WX    TMP DP  RH WIND       PRES   REMARKS
GREELEY ARPT   CLOUDY    64  54  68 W7        30.00F
AKRON          TSTM      64  58  80 W13G22    30.03R
BURLINGTON     CLEAR     67  57  70 NW3       29.90S
WRAY             N/A     70  60  72 NW9       29.89R
STERLING       CLOUDY    72  61  68 NE3       29.91F
HOLYOKE        NOT AVBL
FORT MORGAN    CLOUDY    69  53  57 CALM      30.00R
$$

COZ086-089-092>099-210700-
...SOUTHEAST COLORADO...

CITY           SKY/WX    TMP DP  RH WIND       PRES   REMARKS
PUEBLO         PTCLDY    72  53  51 W7        29.93R
LA JUNTA       CLEAR     71  54  54 W5        29.87R
LAMAR          CLEAR     77  53  43 S12       29.82R
SPRINGFIELD      N/A     76  57  51 S22       29.93R
$$



USA.gov is the U.S. government's official web portal to all federal, state and local government web resources and services.